Deer Park, WA
on Monday, December 3, 2012

Monday
Previous Day Next Day
Daily Summary
 ActualAverageRecord
Temperature
Mean Temperature °F 28°F  
Max Temperature 49°F 34°F 49°F (2012)
Min Temperature 38°F 21°F 5°F (2006)
Degree Days
Heating Degree Days 21 37  
Month to date heating degree days 68 111  
Since 1 July heating degree days 1805 2114  
Cooling Degree Days 0 0  
Month to date cooling degree days 0 0  
Year to date cooling degree days 232 187  
Moisture
Dew Point 35°F   
Average Humidity 77    
Maximum Humidity 92    
Minimum Humidity 61    
Precipitation
Precipitation 0.01 in 0.09 in 1.35 in (2007)
Month to date precipitation 0.59 0.26  
Year to date precipitation 24.70 19.65  
Wind
Wind Speed 10 mph   
Max Wind Speed 23 mph   
Max Gust Speed 29 mph   
Visibility 10 miles   
Events Rain   

Key: T is trace of precipitation, MM is missing value
Source: NWS Daily Summary
Time(PST)TemperatureDew PointHumidity Pressure Visibility Wind DirectionWind SpeedGust SpeedPrecipitationEvents Conditions
12:21 AM 39.2°F 33.8°F 81% 29.82 in 10.0 miles SSW 12.7 mph - N/A   Overcast
12:53 AM 39.9°F 34.0°F 79% 29.86 in 10.0 miles SSW 16.1 mph - N/A   Overcast
1:09 AM 41.0°F 33.8°F 76% 29.83 in 10.0 miles SSW 12.7 mph - N/A   Overcast
1:53 AM 39.9°F 34.0°F 79% 29.88 in 10.0 miles SSW 9.2 mph - N/A   Overcast
2:24 AM 41.0°F 33.8°F 76% 29.85 in 10.0 miles SSW 15.0 mph - N/A   Overcast
2:53 AM 39.9°F 34.0°F 79% 29.88 in 10.0 miles SSW 11.5 mph - 0.00 in Rain Light Rain
3:53 AM 41.0°F 33.1°F 73% 29.89 in 10.0 miles SSW 13.8 mph - 0.00 in   Mostly Cloudy
4:53 AM 41.0°F 33.1°F 73% 29.91 in 10.0 miles SSW 11.5 mph - N/A   Overcast
5:53 AM 39.9°F 32.0°F 73% 29.94 in 10.0 miles SW 11.5 mph - N/A   Mostly Cloudy
7:53 AM 39.0°F 33.1°F 79% 29.96 in 10.0 miles SSW 13.8 mph 25.3 mph N/A   Clear
8:53 AM 42.1°F 34.0°F 73% 29.98 in 10.0 miles SSW 13.8 mph - N/A   Partly Cloudy
9:53 AM 42.1°F 34.0°F 73% 30.01 in 10.0 miles SSW 15.0 mph - N/A   Mostly Cloudy
10:53 AM 43.0°F 35.1°F 74% 30.03 in 10.0 miles SSW 12.7 mph - N/A   Overcast
11:53 AM 46.0°F 36.0°F 68% 30.01 in 10.0 miles SSW 18.4 mph 27.6 mph N/A   Overcast
12:53 PM 48.0°F 36.0°F 63% 30.02 in 10.0 miles SW 17.3 mph 21.9 mph N/A   Overcast
1:53 PM 46.9°F 37.0°F 68% 30.02 in 10.0 miles SW 11.5 mph - N/A   Overcast
2:53 PM 46.9°F 37.0°F 68% 30.04 in 10.0 miles SSW 10.4 mph - N/A   Overcast
3:53 PM 46.0°F 36.0°F 68% 30.06 in 10.0 miles SSW 10.4 mph - N/A   Overcast
4:53 PM 44.1°F 37.0°F 76% 30.07 in 10.0 miles South 6.9 mph - N/A   Overcast
5:53 PM 43.0°F 36.0°F 76% 30.08 in 10.0 miles SSE 4.6 mph - N/A   Scattered Clouds
6:53 PM 43.0°F 36.0°F 76% 30.08 in 10.0 miles SSE 5.8 mph - N/A   Overcast
7:53 PM 41.0°F 37.9°F 89% 30.07 in 10.0 miles Calm Calm - 0.01 in Rain Light Rain
8:53 PM 41.0°F 37.9°F 89% 30.05 in 10.0 miles Calm Calm - 0.00 in   Overcast
10:53 PM 39.0°F 37.0°F 93% 30.00 in 10.0 miles Calm Calm - N/A   Overcast
11:53 PM 37.9°F 37.0°F 97% 29.95 in 10.0 miles NE 4.6 mph - N/A   Mostly Cloudy
Moon Phase
Dec. 03 Dec. 06 Dec. 13 Dec. 20 Dec. 28
Sunrise:07:21 AM (PST) Moon Rise:09:02 PM (PST)12/3
Sunset:03:57 PM (PST) Moon Set:10:35 AM (PST)12/3

Copyright © 2014 The Weather Underground, Inc.